User: anonymous   Login
Location: Newark
(44.1667°N, 8.2500°E)
Time: 12:56:47
(UTC+00:00)
Language:

Tiros 1 - Orbit

View from above orbital plane
View from above orbital plane
View from above satellite
View from above satellite

Ground track
Ground track

The orbit data is extracted from the following two-line orbital elements,

1    29U 60002B   19349.78742793 -.00000141  00000-0  10087-4 0  9999
2    29  48.3798 100.0969 0024068 163.6202 196.5492 14.74333171191413
Epoch (UTC): 15 December 2019 18:53:53
Eccentricity: 0.0024068
inclination: 48.3798°
perigee height: 630 km
apogee height: 664 km
right ascension of ascending node: 100.0969°
argument of perigee: 163.6202°
revolutions per day: 14.74333171
mean anomaly at epoch: 196.5492°
orbit number at epoch: 19141

The dashed part of the orbit path shows where the satellite is in the earth's shadow,  

DLR